Hourly Data Report for October 04, 2017

All times are specified in Local Standard Time (LST). Add 1 hour to adjust for Daylight Saving Time where and when it is observed.

GRAND MANAN SAR CS
NEW BRUNSWICK

44°42'43.400" N
66°48'06.900" W
78.20 m
8101925
71030
XGM

Download Data

Hourly Data (October 2017)
Hourly Data Report for October 4, 2017
Temp Definition
°C
Dew Point Temp Definition
°C
Rel Hum Definition
%
Wind Dir Definition
10's deg

Wind Spd Definition
km/h
Visibility Definition
km
Stn Press Definition
kPa
Hmdx Definition


Wind Chill Definition


Weather Definition


TIME
00:00 10.9 9.1 89 23 15   102.07     LegendNANA
01:00 11.3 9.4 88 23 16   102.01     LegendNANA
02:00 11.1 9.4 89 23 16   102.00     LegendNANA
03:00 11.4 9.5 88 23 16   101.89     LegendNANA
04:00 11.7 10.1 90 23 16   101.82     LegendNANA
05:00 11.9 10.6 92 24 17   101.77     LegendNANA
06:00 11.9 10.8 93 24 16   101.75     LegendNANA
07:00 12.0 11.0 94 23 19   101.68     LegendNANA
08:00 13.0 11.1 88 24 20   101.65     LegendNANA
09:00 14.0 11.0 82 24 22   101.62     LegendNANA
10:00 14.6 11.1 80 25 20   101.55     LegendNANA
11:00 15.5 11.7 78 24 22   101.49     LegendNANA
12:00 15.7 11.5 76 24 19   101.38     LegendNANA
13:00 16.4 11.8 74 24 19   101.27     LegendNANA
14:00 15.9 11.7 76 23 21   101.21     LegendNANA
15:00 15.9 11.7 76 24 14   101.08     LegendNANA
16:00 16.1 11.0 72 23 18   100.97     LegendNANA
17:00 14.5 10.9 79 23 21   100.92     LegendNANA
18:00 13.2 11.6 90 23 18   100.87     LegendNANA
19:00 13.0 11.9 93 23 17   100.83     LegendNANA
20:00 13.2 12.1 93 23 20   100.76     LegendNANA
21:00 14.0 12.8 92 23 20   100.69     LegendNANA
22:00 14.4 13.2 93 22 20   100.61     LegendNANA
23:00 14.2 13.1 93 23 17   100.51     LegendNANA

Notes on Data Quality.

Legend

  • E = Estimated
  • M = Missing
  • NA = Not Available
  • ‡ = Partner data that is not subject to review by the National Climate Archives
Date modified: